Weather History for Orange City, IA

Change the Weather History Date:

Tuesday, November 20, 2012

  Actual Average Record
Temperature  
Mean Temperature 42 °F -  
Max Temperature 59 °F 40 °F 68 °F (2003)
Min Temperature 24 °F 24 °F 3 °F (2000)
Degree Days  
Heating Degree Days 24    
Moisture  
Dew Point 29 °F    
Average Humidity 62    
Maximum Humidity 100    
Minimum Humidity 22    
Precipitation  
Precipitation 0.05 in - - ()
Sea Level Pressure  
Sea Level Pressure 30.12 in    
Wind  
Wind Speed 6 mph (South)    
Max Wind Speed 13 mph    
Max Gust Speed -    
Visibility 9 miles    
Events      
Averages and records for this station are not official NWS values.
T = Trace of Precipitation, MM = Missing Value Source: NWS Daily Summary

Daily Weather History Graph

Daily Weather History Graph

Search for Another Location

Airport:

Trip Planner

Search our weather history database for the weather conditions in past years. The results will help you decide how hot, cold, wet, or windy it might be!

Date:

Astronomy

Nov. 20, 2012 Rise Set
Actual Time 7:23 AM CST 4:56 PM CST
Civil Twilight 6:52 AM CST 5:27 PM CST
Nautical Twilight 6:17 AM CST 6:01 PM CST
Astronomical Twilight 5:44 AM CST 6:35 PM CST
Moon 12:53 PM CST (11/20) No Moon Set
Length of Visible Light 10h 34m
Length of Day
9h 32m
First Quarter, 51% of the Moon is Illuminated
Nov 20
First Quarter
Nov 28
Full
Dec 6
Last Quarter
Dec 13
New
Dec 19
First Quarter

Hourly Weather History & Observations

Time (CST) Temp. Windchill Dew Point Humidity Pressure Visibility Wind Dir Wind Speed Gust Speed Precip Events Conditions
12:15 AM 37.4 °F 32.1 °F 33.8 °F 87% 30.13 in 10.0 mi NNW 6.9 mph - N/A   Clear
12:35 AM 37.4 °F 33.8 °F 32.0 °F 81% 30.13 in 10.0 mi NNW 4.6 mph - N/A   Clear
12:55 AM 35.6 °F 30.7 °F 32.0 °F 87% 30.14 in 10.0 mi NNW 5.8 mph - N/A   Clear
1:15 AM 33.8 °F 30.8 °F 30.2 °F 87% 30.14 in 7.0 mi NNW 3.5 mph - N/A   Clear
1:35 AM 28.4 °F 23.3 °F 28.4 °F 100% 30.14 in 5.0 mi NW 4.6 mph - N/A   Clear
1:55 AM 30.2 °F 26.7 °F 28.4 °F 93% 30.14 in 7.0 mi NW 3.5 mph - N/A   Clear
2:15 AM 30.2 °F 25.4 °F 28.4 °F 93% 30.14 in 7.0 mi NW 4.6 mph - N/A   Clear
2:35 AM 30.2 °F 26.7 °F 28.4 °F 93% 30.15 in 7.0 mi NW 3.5 mph - N/A   Clear
6:15 AM 28.4 °F 24.6 °F 26.6 °F 93% 30.17 in 5.0 mi NNW 3.5 mph - N/A   Clear
6:35 AM 30.2 °F 25.4 °F 28.4 °F 93% 30.17 in 7.0 mi North 4.6 mph - N/A   Clear
6:55 AM 30.2 °F - 28.4 °F 93% 30.17 in 10.0 mi Calm Calm - N/A   Clear
7:15 AM 28.4 °F - 26.6 °F 93% 30.17 in 7.0 mi Calm Calm - N/A   Clear
7:35 AM 24.8 °F - 23.0 °F 93% 30.18 in 5.0 mi Calm Calm - N/A   Clear
7:55 AM 26.6 °F - 24.8 °F 93% 30.19 in 3.0 mi Calm Calm - N/A   Clear
8:15 AM 26.6 °F - 26.6 °F 100% 30.19 in 2.0 mi Calm Calm - N/A   Clear
8:35 AM 28.4 °F - 26.6 °F 93% 30.19 in 3.0 mi Calm Calm - N/A   Clear
8:55 AM 30.2 °F - 28.4 °F 93% 30.19 in 3.0 mi Calm Calm - N/A   Clear
9:15 AM 33.8 °F - 30.2 °F 87% 30.20 in 5.0 mi Calm Calm - N/A   Clear
9:35 AM 35.6 °F - 30.2 °F 81% 30.19 in 5.0 mi Calm Calm - N/A   Clear
9:55 AM 35.6 °F - 30.2 °F 81% 30.19 in 7.0 mi Calm Calm - N/A   Clear
10:15 AM 39.2 °F 37.0 °F 33.8 °F 81% 30.19 in 7.0 mi SSE 3.5 mph - N/A   Clear
10:35 AM 39.2 °F 35.9 °F 35.6 °F 87% 30.19 in 10.0 mi South 4.6 mph - N/A   Clear
10:55 AM 42.8 °F 39.3 °F 35.6 °F 76% 30.19 in 10.0 mi SSW 5.8 mph - N/A   Clear
11:15 AM 44.6 °F 40.7 °F 35.6 °F 71% 30.19 in 10.0 mi SSW 6.9 mph - N/A   Clear
11:35 AM 46.4 °F 43.5 °F 35.6 °F 66% 30.19 in 10.0 mi South 5.8 mph - N/A   Clear
11:55 AM 48.2 °F - 35.6 °F 62% 30.17 in 10.0 mi South 5.8 mph - N/A   Clear
12:15 PM 50.0 °F - 35.6 °F 58% 30.16 in 10.0 mi South 8.1 mph - N/A   Clear
12:35 PM 53.6 °F - 33.8 °F 47% 30.15 in - South 8.1 mph - 0.05 in   Clear
12:55 PM 55.4 °F - 28.4 °F 36% 30.14 in 10.0 mi South 8.1 mph - N/A   Unknown
1:15 PM 57.2 °F - 26.6 °F 31% 30.13 in 10.0 mi SSE 8.1 mph - N/A   Clear
1:35 PM 57.2 °F - 28.4 °F 33% 30.13 in 10.0 mi South 9.2 mph - N/A   Clear
1:55 PM 57.2 °F - 24.8 °F 29% 30.12 in 10.0 mi South 9.2 mph - N/A   Clear
2:15 PM 59.0 °F - 24.8 °F 27% 30.11 in 10.0 mi South 10.4 mph - N/A   Clear
2:35 PM 59.0 °F - 26.6 °F 29% 30.10 in 10.0 mi South 10.4 mph - N/A   Clear
2:55 PM 59.0 °F - 26.6 °F 29% 30.09 in 10.0 mi South 11.5 mph - N/A   Clear
3:15 PM 59.0 °F - 21.2 °F 23% 30.09 in 10.0 mi South 9.2 mph - N/A   Clear
3:35 PM 59.0 °F - 19.4 °F 22% 30.09 in 10.0 mi South 10.4 mph - N/A   Clear
3:55 PM 57.2 °F - 23.0 °F 27% 30.09 in 10.0 mi South 9.2 mph - N/A   Clear
4:15 PM 55.4 °F - 23.0 °F 29% 30.08 in 10.0 mi South 8.1 mph - N/A   Clear
4:35 PM 55.4 °F - 26.6 °F 33% 30.08 in 10.0 mi SSE 5.8 mph - N/A   Clear
4:55 PM 53.6 °F - 28.4 °F 38% 30.08 in 10.0 mi South 5.8 mph - N/A   Clear
5:15 PM 51.8 °F - 28.4 °F 41% 30.09 in 10.0 mi South 4.6 mph - N/A   Clear
5:35 PM 50.0 °F - 28.4 °F 43% 30.08 in 10.0 mi SSE 3.5 mph - N/A   Clear
5:55 PM 46.4 °F 42.4 °F 30.2 °F 53% 30.08 in 10.0 mi South 8.1 mph - N/A   Clear
6:15 PM 48.2 °F - 28.4 °F 46% 30.08 in 10.0 mi South 8.1 mph - N/A   Clear
6:35 PM 48.2 °F - 28.4 °F 46% 30.08 in 10.0 mi South 6.9 mph - N/A   Clear
6:55 PM 48.2 °F - 28.4 °F 46% 30.08 in 10.0 mi SSE 5.8 mph - N/A   Clear
7:15 PM 48.2 °F - 28.4 °F 46% 30.07 in 10.0 mi South 6.9 mph - N/A   Clear
7:35 PM 48.2 °F - 28.4 °F 46% 30.07 in 10.0 mi South 8.1 mph - N/A   Clear
7:55 PM 48.2 °F - 30.2 °F 50% 30.06 in 10.0 mi South 10.4 mph - N/A   Clear
8:15 PM 46.4 °F 41.9 °F 30.2 °F 53% 30.06 in 10.0 mi South 9.2 mph - N/A   Clear
8:35 PM 46.4 °F 41.5 °F 30.2 °F 53% 30.06 in 10.0 mi South 10.4 mph - N/A   Clear
8:55 PM 46.4 °F 41.5 °F 30.2 °F 53% 30.06 in 10.0 mi South 10.4 mph - N/A   Clear
9:15 PM 44.6 °F 39.7 °F 30.2 °F 57% 30.06 in 10.0 mi South 9.2 mph - N/A   Clear
9:35 PM 44.6 °F 39.2 °F 30.2 °F 57% 30.05 in 10.0 mi South 10.4 mph - N/A   Clear
9:55 PM 44.6 °F 39.7 °F 30.2 °F 57% 30.05 in 10.0 mi South 9.2 mph - N/A   Clear
10:15 PM 44.6 °F 38.8 °F 30.2 °F 57% 30.04 in 10.0 mi South 11.5 mph - N/A   Clear
10:35 PM 44.6 °F 39.7 °F 32.0 °F 61% 30.04 in 10.0 mi South 9.2 mph - N/A   Clear
10:55 PM 44.6 °F 39.2 °F 32.0 °F 61% 30.04 in 10.0 mi South 10.4 mph - N/A   Clear
11:15 PM 46.4 °F 41.1 °F 32.0 °F 57% 30.03 in 10.0 mi South 11.5 mph - N/A   Clear
11:35 PM 46.4 °F 40.7 °F 33.8 °F 62% 30.03 in 10.0 mi South 12.7 mph - N/A   Clear
11:55 PM 46.4 °F 40.7 °F 33.8 °F 62% 30.03 in 10.0 mi South 12.7 mph - N/A   Clear